Temp_Advection
nan nan nan nan nan nan nan nan nan nan nan nan nan nan nan nan nan nan nan nan nan nan nan nan nan nan nan nan nan nan nan nan nan nan nan nan nan nan nan nan nan nan nan
nan 0 0 0 -0 -0 -0 -0 -0 -0 0 -0 0 0 0 0 0 -0 -0 -0 0 0 0 -0 -0 0 0 -0 -0 0 0 0 -0 -0 -0 -0 -0 -0 -0 -0 -0 -0 nan
nan -0 0 0 -0 -0 -0 -0 -0 -0 -0 0 0 0 0 0 0 0 0 -0 -0 0 0 0 -0 -0 0 0 0 0 0 -0 -0 -0 -0 -0 -0 -0 -0 0 -0 -0 nan
nan -0 -0 0 0 -0 -0 -0 -0 -0 -0 -0 0 -0 -0 -0 0 0 0 -0 -0 -0 0 0 0 0 0 -0 0 -0 -0 -0 -0 -0 -0 -0 -0 -0 0 -0 -0 -0 nan
nan -0 -0 -0 0 -0 -0 -0 -0 -0 -0 -0 -0 -0 -0 -0 0 0 0 0 0 -0 0 -0 -0 -0 -0 -0 -0 -0 -0 -0 -0 -0 0 0 -0 -0 -0 -0 -0 -0 nan
nan -0 0 -0 0 -0 -0 -0 -0 -0 -0 -0 -0 -0 -0 -0 0 0 0 0 0 0 0 0 -0 0 0 -0 -0 -0 -0 -0 -0 0 0 -0 -0 -0 -0 -0 -0 -0 nan
nan 0 0 -0 -0 0 -0 -0 -0 -0 -0 -0 -0 -0 -0 -0 0 0 0 0 0 -0 -0 -0 -0 -0 -0 -0 -0 -0 -0 -0 0 0 -0 -0 0 -0 -0 -0 -0 -0 nan
nan 0 0 0 0 0 0 -0 -0 -0 -0 -0 -0 -0 -0 -0 0 0 0 0 0 -0 -0 -0 -0 -0 -0 -0 -0 -0 -0 -0 -0 0 0 0 -0 -0 -0 -0 -0 -0 nan
nan 0 0 0 0 0 0 0 -0 -0 -1 -0 -0 -0 -0 -0 -0 0 0 0 -0 -0 -0 -0 -0 -0 -0 -0 -0 -0 -0 -0 0 0 0 0 -0 -0 -0 0 -0 -0 nan
nan 0 0 0 0 0 0 0 0 0 -0 -0 -0 -0 -0 -0 -0 -0 0 0 -0 0 0 -0 -0 -0 -0 -0 -0 -0 -0 -0 -0 0 -0 0 -0 -0 -0 0 -0 -0 nan
nan 0 0 0 0 0 0 0 0 0 0 -0 -0 -0 -0 0 0 0 0 0 0 0 0 0 -0 -0 0 -0 -0 -0 0 -0 -0 0 0 0 0 -0 -0 0 0 -0 nan
nan 0 0 0 0 0 0 0 0 0 0 0 -0 -0 0 0 0 0 0 0 0 0 0 0 0 -0 0 -0 -0 -0 0 0 -0 0 0 0 0 0 -0 0 0 -0 nan
nan 0 0 0 0 -0 0 -0 0 0 0 0 -0 0 0 0 0 0 0 0 0 0 0 0 0 0 0 0 -0 -0 0 0 0 0 0 0 0 0 -0 0 -0 -0 nan
nan 0 0 0 0 -0 -0 0 0 0 0 0 0 0 0 0 0 -0 0 0 0 0 0 0 0 0 -0 -0 -0 0 0 -0 0 0 0 0 0 0 0 0 0 -0 nan
nan -0 -0 0 -0 0 0 0 0 0 0 0 0 0 -0 0 -0 0 0 0 0 0 0 0 0 -0 -0 -0 -0 0 0 0 -0 0 0 0 0 0 0 -0 -0 -0 nan
nan -0 -0 -0 -0 0 0 0 0 0 0 0 0 0 0 0 -0 0 0 0 0 0 0 0 0 -0 -0 -0 -0 0 0 0 -0 0 0 0 0 -0 0 0 -0 -0 nan
nan 0 0 0 0 0 0 0 0 0 0 -0 0 0 0 -0 0 0 0 0 0 0 0 0 0 -0 -0 -0 0 0 0 0 0 0 0 0 0 -0 -0 0 0 -0 nan
nan 0 0 0 -0 0 0 0 0 0 -0 -0 0 0 -0 0 0 0 -0 -0 0 0 0 0 -0 -0 -0 0 0 -0 0 0 0 0 0 0 -0 -0 -0 -0 -0 -0 nan
nan 0 0 0 -0 -0 0 1 0 -0 -0 0 -0 -0 0 0 0 0 -0 0 0 0 0 0 -0 -0 0 0 0 0 0 -0 0 0 0 0 0 0 -0 -0 -0 -0 nan
nan -0 0 -0 0 0 1 1 0 0 0 -0 0 0 0 0 0 0 0 0 0 0 0 0 -0 0 0 0 -0 0 0 -0 -0 0 0 -0 -0 -0 0 -0 -0 -0 nan
nan -0 -0 -0 1 1 1 0 0 0 -0 -0 0 0 0 0 0 -0 0 0 0 0 0 -0 -0 0 0 0 0 0 0 0 -0 -0 0 0 0 -0 -0 -0 -0 -0 nan
nan -0 0 0 0 1 1 0 -0 0 0 0 0 0 0 0 0 0 0 0 0 0 0 -0 0 0 0 0 0 0 0 0 0 0 0 0 0 0 0 -0 -0 -0 nan
nan -0 0 0 1 1 0 1 0 1 0 0 -0 0 1 0 0 0 1 1 0 0 0 0 0 0 0 0 0 0 0 0 0 0 0 0 0 0 0 0 0 -0 nan
nan 0 0 0 0 0 1 0 -0 1 0 -0 -0 1 -0 -0 1 1 1 1 0 0 0 0 0 0 0 0 0 0 0 0 0 0 0 0 0 0 0 0 0 0 nan
nan 0 -0 0 0 0 -0 -0 1 1 0 0 1 0 -0 1 1 1 1 1 0 0 0 0 0 0 0 0 0 0 0 0 0 0 -0 0 0 1 0 0 0 0 nan
nan nan nan nan nan nan nan nan nan nan nan nan nan nan nan nan nan nan nan nan nan nan nan nan nan nan nan nan nan nan nan nan nan nan nan nan nan nan nan nan nan nan nan
Wind_Speed
15 14 16 15 15 16 15 14 13 11 9 9 7 6 4 3 3 3 4 5 4 3 8 10 14 12 12 5 1 2 2 3 4 5 4 3 4 6 7 6 1 2 3
16 20 18 17 17 16 15 14 12 11 10 10 9 6 5 4 1 3 3 7 9 8 12 11 12 13 7 3 1 4 4 3 3 5 4 3 4 8 7 5 3 3 3
17 20 19 18 18 17 16 14 12 10 10 10 10 8 7 4 3 5 7 9 10 12 13 12 9 6 4 2 2 4 5 8 9 8 7 6 8 10 9 4 3 4 3
17 21 19 19 18 17 15 12 10 11 15 15 13 9 6 4 3 8 11 11 10 10 12 12 9 6 4 3 3 7 11 11 10 9 11 10 8 10 10 6 4 4 3
18 20 20 20 17 15 14 12 12 15 18 15 10 6 8 12 11 12 13 13 13 12 11 9 7 4 4 6 9 10 11 10 10 10 10 10 7 10 9 7 6 5 4
16 19 19 19 17 15 13 12 13 15 15 13 11 14 15 14 12 12 12 13 13 13 12 11 10 10 11 11 11 11 11 10 10 7 6 5 6 7 7 7 6 6 5
16 19 17 18 17 14 12 11 13 15 14 13 16 14 13 12 10 11 11 12 11 11 11 10 10 11 11 11 9 8 8 7 7 4 2 3 4 5 4 4 2 2 3
14 16 14 14 16 13 12 11 11 14 13 14 15 13 11 9 8 9 9 10 10 10 10 10 10 9 8 7 6 7 8 9 6 4 1 1 2 6 3 3 4 4 3
16 17 16 15 14 12 12 10 10 11 14 14 14 12 11 9 8 9 8 8 8 9 9 9 8 6 6 5 5 6 7 7 4 2 3 4 6 7 5 2 1 4 4
19 16 16 20 18 16 14 12 11 11 11 13 13 14 12 10 10 9 8 7 7 8 8 7 5 4 4 5 5 3 4 4 2 2 6 6 7 6 5 5 4 3 5
19 18 15 22 20 18 15 14 13 13 12 13 14 14 13 10 10 10 7 7 7 7 6 5 4 2 2 2 3 2 1 3 5 6 7 8 8 4 7 6 3 5 6
22 19 17 16 19 19 17 16 16 15 14 14 16 15 13 11 9 7 7 6 7 7 6 4 3 1 1 1 4 5 3 5 8 9 8 7 7 6 9 6 7 7 8
23 20 20 17 14 19 21 18 18 15 14 14 16 16 15 14 10 8 6 7 7 7 6 5 3 2 2 3 5 6 6 7 9 11 10 9 8 9 9 6 8 7 7
26 24 22 20 18 18 16 18 18 17 16 16 17 18 19 16 13 10 8 9 9 6 7 6 4 3 3 4 4 7 9 10 9 10 10 8 8 9 8 7 7 7 7
27 25 28 25 23 23 21 19 18 18 17 14 17 17 21 18 15 15 13 12 9 7 8 7 6 5 5 6 7 8 8 8 10 10 10 8 7 7 7 7 7 8 8
25 28 27 31 28 27 26 23 21 21 17 14 15 13 18 17 15 18 18 15 10 9 10 8 7 7 8 7 8 7 6 6 8 9 9 8 7 5 6 7 7 7 8
23 25 31 31 29 29 30 26 20 22 19 18 16 16 15 17 18 20 16 15 13 13 11 9 9 9 8 7 6 6 5 5 7 9 9 8 7 7 6 6 8 10 11
23 29 29 34 32 31 32 31 25 25 25 25 22 21 18 20 21 21 21 19 17 15 12 11 11 10 8 6 5 5 6 5 6 7 9 9 8 7 8 8 10 12 12
35 28 30 35 35 33 33 33 29 27 29 30 28 24 23 23 26 24 23 21 18 16 14 12 12 9 6 4 4 5 4 6 5 5 7 8 9 9 10 11 13 14 14
36 39 33 37 38 37 34 33 32 29 30 29 29 29 28 27 28 27 24 22 21 19 15 13 11 8 5 3 3 4 3 2 3 5 7 6 8 10 13 16 16 13 17
38 37 40 35 42 41 40 38 37 37 34 33 32 31 32 30 25 25 26 25 24 20 16 13 11 8 6 3 2 4 2 2 3 3 3 7 11 13 15 16 17 18 20
30 36 39 42 35 40 43 40 37 37 39 38 35 33 33 34 30 26 29 29 26 23 18 15 12 9 6 4 2 2 2 4 3 6 8 8 10 14 14 17 18 21 25
32 31 35 36 34 36 43 42 40 38 41 40 39 38 37 37 32 32 32 30 27 23 18 16 14 11 8 5 3 1 2 2 6 5 7 8 12 12 15 18 20 24 26
36 35 33 35 38 32 40 45 45 44 46 45 44 44 41 38 34 37 34 31 27 24 20 18 15 12 9 6 4 4 4 5 3 4 8 9 13 16 18 20 24 24 23
34 34 26 40 38 39 33 46 47 48 46 46 46 46 44 41 41 38 36 33 29 25 22 20 17 13 10 7 6 6 6 6 8 9 14 13 18 20 21 22 22 23 20
15 17 25 32 32 39 41 40 46 52 50 47 46 46 46 43 39 40 37 34 31 27 25 22 17 13 11 8 7 8 8 8 9 11 15 22 25 27 24 23 22 20 19
Wind_Direction
181 177 162 148 149 150 152 156 162 169 172 170 174 179 187 208 257 295 290 234 190 143 103 113 113 125 129 136 18 42 359 351 340 325 326 327 357 2 6 11 330 356 357
181 170 159 146 149 151 154 155 159 167 173 173 177 190 183 168 132 21 68 129 151 142 120 115 117 119 112 104 44 35 41 48 70 86 81 54 42 29 13 18 13 339 344
177 165 154 147 147 149 148 146 148 154 160 156 158 160 152 145 93 49 97 108 134 147 145 135 133 132 147 163 321 10 57 89 101 89 59 38 43 30 16 14 27 43 39
184 164 156 152 149 147 143 138 137 140 141 138 154 166 162 145 107 105 98 103 118 141 154 156 162 179 228 298 49 82 96 97 88 67 56 17 38 29 27 37 46 37 60
179 165 160 155 149 147 142 134 130 131 137 151 152 157 149 128 120 108 98 98 104 115 136 153 171 176 128 102 88 94 96 95 85 57 66 18 46 27 27 46 50 54 53
170 173 166 158 153 151 144 136 137 143 143 147 141 132 132 131 123 108 103 101 102 106 112 115 115 109 102 97 93 91 89 100 90 68 48 15 5 344 8 24 27 30 10
178 174 172 170 163 155 150 146 146 154 152 147 148 143 141 135 124 115 112 111 109 109 109 109 106 103 99 95 88 81 85 106 112 106 62 324 329 325 333 335 341 359 352
189 178 186 188 171 164 160 156 153 165 159 158 158 157 153 146 142 128 118 113 111 110 112 111 108 101 90 80 68 60 77 107 111 124 142 269 299 326 346 336 354 355 352
202 196 201 197 187 178 170 167 163 170 175 173 172 166 165 163 167 150 134 127 122 121 119 116 108 96 79 57 52 67 105 116 164 164 225 242 290 302 308 307 313 306 295
198 207 220 205 197 187 179 178 175 177 181 180 176 172 166 164 165 159 152 142 136 134 133 128 115 98 73 89 84 80 137 178 227 235 260 276 288 286 291 307 330 340 312
209 217 217 206 200 192 189 187 185 185 185 183 174 174 174 167 164 164 166 158 148 148 142 137 125 110 118 118 88 54 4 265 261 261 272 279 286 285 284 297 308 300 307
209 214 217 210 213 203 202 201 196 195 191 189 180 179 181 183 180 179 176 170 164 164 159 160 165 126 147 329 329 322 306 275 283 280 281 285 287 270 282 295 290 288 302
205 225 222 218 217 217 211 205 203 199 198 196 191 188 190 197 189 192 189 194 191 183 179 188 202 189 259 298 296 301 300 286 280 281 286 289 281 267 288 295 285 306 312
212 213 222 224 220 224 236 217 208 208 206 204 199 193 195 202 202 210 216 209 207 185 192 214 223 250 292 292 289 298 302 295 293 289 288 293 285 274 284 296 302 315 316
215 214 209 214 222 227 231 232 225 205 202 205 201 192 196 208 211 220 208 209 203 210 212 222 240 262 285 292 301 302 298 287 292 295 294 296 293 281 290 304 307 311 314
222 221 216 209 217 225 231 233 241 210 197 209 207 200 205 209 211 198 204 207 223 230 225 229 244 264 277 285 296 302 303 294 290 291 292 295 291 297 295 294 301 308 312
224 225 221 216 213 219 230 232 233 217 206 217 209 213 219 211 198 207 212 214 224 232 225 235 246 262 272 288 296 297 296 303 292 291 291 295 297 299 300 303 304 302 302
235 235 223 218 218 221 228 231 218 204 205 215 212 214 216 209 209 211 214 218 232 221 229 246 247 256 269 278 289 299 309 307 298 291 290 297 303 300 301 306 308 302 302
236 236 233 222 222 225 230 229 218 204 206 215 215 217 215 220 214 220 219 225 222 219 231 237 249 248 256 277 303 305 308 316 307 286 286 298 308 312 309 313 311 308 308
239 236 240 230 231 227 227 227 223 219 213 220 219 221 217 223 219 220 221 222 217 222 227 233 229 238 245 273 305 311 306 4 347 315 293 295 298 306 310 312 313 319 317
239 236 239 239 229 224 221 218 216 213 213 217 218 220 222 224 220 219 219 215 217 222 227 227 219 223 235 260 293 306 276 297 325 341 300 306 304 305 313 313 318 317 317
240 237 237 236 230 223 222 221 224 223 217 216 217 217 225 228 221 225 219 217 217 218 219 220 215 217 226 245 271 278 268 279 279 290 291 294 299 298 302 313 308 309 314
249 244 238 236 235 231 226 217 223 223 222 219 220 218 220 229 222 231 222 218 219 222 223 218 215 217 222 238 268 271 268 254 308 277 268 269 278 280 293 295 301 305 310
246 249 248 248 247 239 231 220 221 221 218 221 222 221 219 226 227 226 222 217 220 220 221 218 214 220 227 242 258 278 283 277 284 278 266 260 277 280 291 293 297 302 304
250 246 250 244 245 244 239 232 231 222 221 223 224 223 223 224 218 225 216 216 218 220 218 217 217 221 234 248 261 274 284 282 277 271 285 274 279 288 292 297 301 306 302
246 254 251 249 247 239 238 237 230 225 221 220 224 223 222 220 215 221 215 215 218 218 219 216 216 221 232 250 271 285 288 285 281 275 279 292 297 303 305 307 309 310 308
Height
1515 1516 1518 1519 1521 1523 1525 1527 1529 1531 1532 1534 1534 1535 1535 1536 1536 1536 1535 1536 1537 1539 1540 1540 1540 1540 1541 1542 1544 1544 1544 1545 1545 1546 1546 1546 1545 1545 1544 1543 1543 1543 1543
1513 1516 1518 1518 1520 1522 1524 1526 1528 1530 1531 1533 1534 1535 1535 1536 1536 1536 1535 1535 1536 1538 1540 1541 1541 1541 1542 1544 1544 1544 1544 1544 1545 1545 1544 1545 1544 1545 1544 1544 1544 1543 1543
1513 1515 1517 1519 1520 1522 1524 1526 1527 1528 1530 1532 1533 1534 1535 1536 1536 1535 1535 1535 1536 1537 1539 1541 1543 1543 1543 1544 1544 1544 1543 1544 1545 1545 1545 1544 1544 1544 1544 1544 1544 1544 1543
1513 1515 1516 1518 1520 1522 1524 1526 1527 1528 1529 1531 1533 1534 1534 1535 1536 1536 1535 1535 1536 1537 1539 1541 1542 1542 1543 1543 1543 1543 1544 1544 1545 1546 1545 1544 1545 1545 1544 1544 1543 1543 1543
1512 1514 1516 1518 1520 1522 1523 1524 1526 1527 1529 1530 1532 1533 1534 1534 1536 1536 1536 1536 1536 1538 1539 1540 1541 1542 1542 1543 1543 1544 1544 1545 1546 1546 1545 1546 1545 1545 1545 1544 1543 1543 1543
1512 1514 1516 1518 1519 1521 1522 1524 1525 1526 1528 1530 1531 1533 1534 1535 1536 1536 1537 1537 1538 1538 1539 1540 1541 1542 1542 1543 1544 1545 1545 1546 1547 1547 1547 1547 1546 1545 1545 1544 1544 1543 1543
1510 1513 1515 1517 1519 1520 1522 1523 1524 1526 1527 1529 1531 1532 1534 1535 1536 1537 1537 1538 1538 1539 1540 1541 1542 1543 1543 1544 1545 1546 1546 1546 1546 1546 1546 1546 1546 1545 1544 1544 1543 1542 1543
1510 1513 1515 1517 1518 1520 1522 1523 1524 1526 1527 1529 1530 1532 1533 1535 1536 1537 1537 1538 1539 1539 1540 1541 1543 1544 1544 1545 1545 1545 1545 1545 1546 1545 1545 1545 1545 1544 1543 1542 1543 1542 1541
1510 1513 1514 1516 1518 1520 1521 1523 1525 1526 1527 1528 1530 1531 1533 1534 1536 1537 1538 1538 1539 1539 1541 1541 1543 1544 1544 1545 1545 1545 1545 1545 1544 1544 1545 1544 1544 1543 1542 1540 1540 1541 1539
1511 1513 1514 1515 1516 1518 1520 1522 1524 1525 1527 1528 1530 1532 1533 1534 1535 1537 1537 1539 1540 1540 1541 1542 1542 1543 1544 1544 1544 1544 1544 1543 1543 1543 1544 1543 1543 1541 1540 1539 1539 1539 1537
1510 1512 1512 1513 1515 1517 1519 1521 1522 1524 1525 1527 1529 1531 1533 1534 1535 1535 1538 1538 1539 1540 1541 1541 1542 1542 1543 1543 1542 1544 1544 1542 1542 1542 1542 1542 1541 1539 1539 1538 1537 1537 1536
1507 1508 1511 1513 1514 1516 1518 1519 1521 1523 1524 1526 1528 1530 1532 1533 1535 1535 1537 1538 1538 1539 1540 1541 1541 1541 1542 1542 1542 1542 1541 1541 1540 1540 1540 1540 1540 1537 1536 1536 1535 1534 1535
1506 1507 1508 1510 1513 1513 1514 1517 1519 1521 1523 1525 1527 1529 1530 1532 1533 1535 1536 1537 1539 1539 1539 1539 1540 1541 1541 1540 1540 1540 1539 1538 1539 1537 1537 1538 1537 1535 1535 1535 1534 1533 1533
1503 1504 1505 1508 1510 1511 1512 1514 1517 1519 1521 1522 1524 1527 1528 1529 1530 1533 1534 1535 1537 1538 1538 1538 1539 1539 1539 1539 1538 1538 1537 1535 1535 1536 1535 1534 1534 1532 1533 1533 1533 1532 1532
1500 1501 1502 1504 1507 1508 1509 1511 1513 1515 1518 1519 1521 1524 1525 1527 1528 1530 1532 1533 1535 1536 1537 1537 1537 1537 1537 1536 1536 1535 1535 1533 1534 1532 1532 1531 1532 1530 1531 1531 1531 1531 1530
1496 1497 1499 1499 1503 1505 1506 1508 1509 1511 1514 1516 1518 1520 1523 1524 1527 1527 1529 1530 1532 1534 1534 1535 1536 1536 1535 1534 1533 1532 1533 1532 1531 1530 1530 1529 1530 1528 1528 1529 1529 1529 1528
1493 1493 1494 1496 1497 1500 1502 1505 1506 1507 1510 1512 1514 1517 1519 1522 1523 1524 1526 1529 1532 1533 1533 1533 1533 1534 1533 1532 1531 1531 1531 1530 1529 1528 1528 1528 1528 1527 1526 1527 1527 1527 1526
1487 1489 1490 1491 1491 1494 1498 1500 1502 1503 1506 1509 1511 1514 1517 1518 1519 1522 1524 1527 1529 1530 1531 1531 1532 1531 1531 1530 1530 1528 1527 1528 1527 1526 1526 1526 1526 1525 1525 1525 1525 1524 1524
1480 1484 1485 1486 1487 1488 1492 1496 1499 1500 1503 1505 1509 1511 1514 1515 1517 1520 1523 1524 1525 1526 1527 1529 1529 1529 1529 1528 1528 1527 1526 1525 1524 1524 1525 1525 1523 1523 1523 1523 1522 1521 1521
1473 1476 1481 1481 1481 1483 1486 1489 1494 1498 1500 1502 1505 1506 1508 1511 1514 1517 1519 1520 1521 1522 1524 1525 1526 1527 1527 1527 1526 1525 1524 1523 1523 1523 1522 1522 1522 1522 1521 1520 1520 1519 1517
1465 1467 1471 1473 1474 1477 1480 1483 1487 1490 1494 1498 1500 1502 1503 1506 1509 1512 1514 1516 1517 1519 1521 1522 1523 1524 1525 1525 1525 1524 1522 1521 1521 1520 1520 1520 1520 1519 1518 1517 1517 1515 1514
1458 1461 1464 1467 1468 1468 1471 1474 1479 1484 1487 1492 1495 1497 1499 1501 1504 1507 1509 1511 1513 1515 1516 1518 1519 1521 1522 1522 1523 1522 1520 1521 1519 1518 1518 1517 1517 1516 1516 1515 1513 1512 1510
1451 1454 1457 1460 1463 1465 1466 1468 1470 1477 1481 1484 1487 1490 1492 1495 1499 1503 1505 1507 1510 1512 1513 1515 1516 1517 1518 1520 1519 1519 1518 1517 1516 1515 1514 1514 1514 1514 1513 1511 1510 1508 1505
1443 1447 1450 1453 1456 1459 1462 1460 1461 1464 1469 1473 1478 1481 1485 1489 1494 1498 1501 1504 1507 1508 1510 1512 1512 1514 1515 1516 1516 1515 1515 1515 1514 1513 1512 1511 1511 1510 1509 1508 1506 1504 1501
1437 1439 1442 1446 1448 1451 1455 1454 1456 1457 1462 1467 1472 1475 1479 1483 1487 1492 1496 1499 1502 1505 1506 1508 1509 1509 1511 1512 1512 1511 1511 1510 1510 1509 1507 1507 1507 1506 1505 1503 1500 1498 1495
1429 1432 1435 1437 1438 1442 1445 1446 1449 1449 1455 1460 1465 1470 1473 1476 1480 1485 1489 1495 1497 1500 1502 1504 1506 1506 1507 1507 1507 1507 1507 1506 1505 1504 1502 1500 1498 1497 1496 1496 1494 1492 1489